カタログに戻る

BREEZE-KM R/B

運用中PO
NORAD 39252·ROCKET BODY·🇷🇺 Russia

打ち上げ Sep 11, 2013 から Plesetsk Cosmodrome

Loading…

次のパス (今後24時間)

TLE

最新Source: Space-Track

元期: Sep 14, 2026, 12:07 UTC

1 39252U 13048D   26257.50544140 -.00000002  00000-0 -47545-4 0  9995
2 39252  82.4804  76.4884 0220332 329.8257  29.0300 12.79945509607710

AllMySatでBREEZE-KM R/Bをリアルタイム追跡

Download on the App Store